Location: Pl�tzky
(52.0521°N, 11.8020°E)
Time: 00:25:50
(UTC+00:00)

Cosmos 1515 Rocket - Pass Details

Date: 22 November 2019
Orbit: 605 x 631 km, 82.5° (Epoch: 14 December)

Event Time Altitude Azimuth Distance (km) Brightness Sun altitude
Rises 16:48:15 0° 173° (S) 2,879 7.1 -14.2°
Reaches altitude 10° 16:50:31 10° 167° (SSE) 1,974 6.2 -14.5°
Maximum altitude 16:54:42 47° 94° (E) 818 3.7 -15.1°
Enters shadow 16:58:44 11° 21° (NNE) 1,915 5.7 -15.8°
